World > North America > United States > Pennsylvania

Colemanville, Pennsylvania Regional Weather

Lat: 39.90N, Lon: 76.34W
Wx Zone: PAZ066Web Search

Ads allow us to feed your daily addiction for the world's greatest weather information. We're determined to offer quality sponsors, in the least annoying way possible.

Feedback


°F Click to change Colemanville hourly weather to Imperial units.Click to change Colemanville hourly weather to Metric units. °C
Colemanville Weather Map
UTC Time: 5/12/2021, 13:40
Your Time:

Colemanville, PA Regional Weather

Expires:202105121400;;999318
ASUS41 KPHI 121312
RWRPHI

REGIONAL WEATHER ROUNDUP
NATIONAL WEATHER SERVICE MOUNT HOLLY NJ
900 AM EDT WED MAY 12 2021

NOTE:  "FAIR" INDICATES FEW OR NO CLOUDS BELOW 12,000 FEET WITH NO
SIGNIFICANT WEATHER AND/OR OBSTRUCTIONS TO VISIBILITY.

 * = STATION DOES NOT REPORT PRECIPITATION (E.G. RAIN, SNOW, ETC.) 
        OR FOG.


PAZ043-044-047-054-055-060>062-066>071-121400-
EASTERN PENNSYLVANIA
  
CITY           SKY/WX    TMP DP  RH WIND       PRES   REMARKS
PHILADELPHIA   MOSUNNY   51  31  46 W12       30.24R                  
NORTH PHILA    MOSUNNY   51  34  52 NW10      30.23S                  
BLUE BELL*     MOSUNNY   50  33  52 NW7       30.23R                  
DOYLESTOWN     SUNNY     51  33  50 N9G18     30.20R                  
QUAKERTOWN*    SUNNY     50  34  53 NW9G17    30.21S                  
PERKASIE*      FAIR      48  32  53 NW9G20    30.21S                  
POTTSTOWN      SUNNY     49  33  54 NW10G20   30.23S                  
LANCASTER      SUNNY     52  34  50 NW14G21   30.24R                  
COATESVILLE    MOSUNNY   48  34  57 NW10      30.24S                  
WEST CHESTER   FAIR      50  32  50 NW8G18    30.23S                  
READING        SUNNY     51  35  54 N14       30.23R                  
ALLENTOWN      SUNNY     50  34  54 NW14      30.21R                  
QN CITY/ALNTWN FAIR      50  34  53 NW9       30.24R                  
MOUNT POCONO   PTSUNNY   42  32  67 NW16G26   30.17R                  
HAZLETON       MOSUNNY   45  32  61 NW12      30.24S                  
LEHIGHTON      FAIR      50  34  53 W6        30.24R                  
WILKES BARRE   CLOUDY    46  34  62 NW6       30.24R                  

$$

SKY/WX - Weather  TMP - Temperature  DP - Dew Point  RH - Relative Humidity
WIND - Wind Direction/Speed PRES - Barometric Pressure VSB - Visibility
WCI - Wind Chill Index E13G22 Wind - East Wind 13 mph/Gusts of 22 mph